Location: Unspecified
(32.2830°N, 0.0000°E)
Time: 17:29:01
(UTC+00:00)

SO-50 - Visible Passes

Search period start: 04 April 2026 00:00
Search period end: 14 April 2026 00:00
Orbit: 568 x 673 km, 64.6° (Epoch: 29 March)

Date Brightness Start Highest point End Pass type
(mag) Time Alt. Az. Time Alt. Az. Time Alt. Az.
4 Apr ? 21:01:03 10° NNW 21:02:33 19° N 21:02:33 19° N visible
5 Apr ? 21:18:26 10° NNW 21:20:00 21° NNW 21:20:00 21° NNW visible
6 Apr ? 19:57:10 10° N 20:00:20 20° NE 20:00:20 20° NE visible
6 Apr ? 21:36:20 10° NW 21:37:30 17° NW 21:37:30 17° NW visible
7 Apr ? 20:14:02 10° NNW 20:17:54 38° NE 20:17:54 38° NE visible
7 Apr ? 21:55:02 10° WNW 21:55:04 10° WNW 21:55:04 10° WNW visible
8 Apr ? 18:55:10 10° NE 18:55:34 10° NE 18:55:59 10° NE visible
8 Apr ? 20:31:26 10° NNW 20:35:31 66° NNW 20:35:31 66° NNW visible
9 Apr ? 19:10:06 10° N 19:13:38 20° NE 19:16:03 14° E visible
9 Apr ? 20:49:20 10° NW 20:53:14 37° W 20:53:14 37° W visible
10 Apr ? 19:26:58 10° NNW 19:31:29 41° ENE 19:33:50 24° ESE visible
10 Apr ? 21:08:05 10° WNW 21:11:01 17° WSW 21:11:01 17° WSW visible
11 Apr ? 19:44:23 10° NNW 19:49:09 87° WSW 19:51:42 27° SSE visible
12 Apr ? 20:02:17 10° NW 20:06:38 37° WSW 20:09:41 17° S visible
13 Apr ? 20:21:06 10° WNW 20:23:57 16° WSW 20:26:46 10° SW visible
